Total_Precipitation_Accumulation
0.00 0.00 0.01 0.01 0.01 0.01 0.02 0.05 0.11 0.18 0.11 0.11 0.21 0.40 0.45 0.47 0.55 0.71 0.84 0.77 0.73 0.74 0.89 1.07 1.35 1.66 2.06 2.67 3.30 3.42 2.94 2.46 2.03 1.74 1.47 1.22 1.00 0.93 0.88 0.74 0.69 0.69 0.71 0.74
0.01 0.02 0.02 0.02 0.02 0.04 0.05 0.07 0.12 0.15 0.10 0.12 0.18 0.37 0.55 0.61 0.74 0.76 0.81 0.81 0.73 0.84 1.08 1.35 1.69 1.88 2.14 2.52 2.90 2.84 2.35 1.86 1.37 1.06 0.95 0.83 0.70 0.61 0.51 0.48 0.52 0.49 0.55 0.63
0.01 0.03 0.02 0.02 0.02 0.05 0.07 0.08 0.12 0.14 0.07 0.11 0.18 0.42 0.68 0.76 0.65 0.55 0.48 0.55 0.55 0.65 1.01 1.50 1.97 2.16 2.25 2.24 2.06 1.86 1.42 0.92 0.68 0.51 0.48 0.43 0.41 0.41 0.33 0.30 0.33 0.32 0.35 0.39
0.01 0.02 0.01 0.02 0.03 0.04 0.07 0.05 0.05 0.05 0.06 0.19 0.26 0.66 0.86 0.74 0.60 0.50 0.39 0.36 0.37 0.49 0.88 1.52 1.79 1.76 1.73 1.61 1.23 0.93 0.72 0.48 0.34 0.31 0.34 0.34 0.31 0.31 0.27 0.24 0.25 0.24 0.24 0.27
0.02 0.02 0.02 0.02 0.03 0.04 0.05 0.04 0.04 0.06 0.09 0.20 0.34 0.61 0.83 0.68 0.63 0.48 0.35 0.30 0.34 0.42 0.62 0.89 0.96 0.99 0.99 0.87 0.70 0.57 0.51 0.41 0.39 0.38 0.39 0.40 0.29 0.24 0.22 0.21 0.20 0.21 0.24 0.26
0.04 0.04 0.03 0.02 0.02 0.03 0.03 0.05 0.10 0.20 0.28 0.49 0.47 0.55 0.81 0.73 0.56 0.34 0.24 0.25 0.23 0.28 0.41 0.52 0.51 0.47 0.45 0.36 0.38 0.40 0.50 0.54 0.46 0.37 0.32 0.32 0.28 0.24 0.21 0.18 0.19 0.20 0.22 0.26
0.10 0.08 0.08 0.06 0.05 0.05 0.05 0.08 0.23 0.51 0.79 0.80 0.45 0.48 0.75 0.51 0.32 0.22 0.16 0.15 0.21 0.31 0.37 0.42 0.46 0.44 0.34 0.26 0.28 0.29 0.30 0.32 0.32 0.29 0.28 0.27 0.27 0.25 0.23 0.20 0.16 0.17 0.19 0.23
0.14 0.15 0.11 0.07 0.05 0.05 0.06 0.08 0.15 0.28 0.31 0.36 0.36 0.71 0.81 0.36 0.25 0.15 0.10 0.10 0.15 0.23 0.27 0.27 0.28 0.27 0.21 0.17 0.14 0.12 0.13 0.13 0.14 0.14 0.17 0.18 0.22 0.20 0.20 0.23 0.19 0.17 0.20 0.24
0.06 0.05 0.04 0.04 0.05 0.06 0.05 0.05 0.06 0.06 0.11 0.23 0.41 0.60 0.49 0.27 0.18 0.10 0.06 0.06 0.08 0.10 0.11 0.12 0.09 0.09 0.09 0.08 0.07 0.08 0.06 0.06 0.06 0.07 0.10 0.12 0.17 0.19 0.18 0.20 0.19 0.19 0.25 0.26
0.03 0.02 0.02 0.03 0.04 0.06 0.06 0.05 0.04 0.04 0.10 0.18 0.32 0.55 0.55 0.29 0.18 0.08 0.04 0.04 0.04 0.03 0.04 0.04 0.05 0.04 0.03 0.02 0.03 0.03 0.03 0.03 0.04 0.04 0.05 0.07 0.10 0.13 0.15 0.15 0.18 0.21 0.21 0.22
0.02 0.01 0.02 0.03 0.04 0.05 0.04 0.04 0.04 0.04 0.05 0.09 0.20 0.32 0.24 0.13 0.06 0.03 0.02 0.01 0.01 0.01 0.01 0.01 0.02 0.02 0.02 0.02 0.01 0.02 0.02 0.02 0.02 0.02 0.03 0.04 0.06 0.08 0.11 0.14 0.16 0.19 0.19 0.21
0.01 0.01 0.01 0.03 0.05 0.04 0.03 0.03 0.04 0.04 0.04 0.06 0.10 0.14 0.10 0.07 0.03 0.02 0.01 0.01 0.01 0.01 0.00 0.00 0.00 0.01 0.01 0.01 0.01 0.02 0.02 0.02 0.02 0.02 0.02 0.03 0.05 0.06 0.07 0.09 0.13 0.16 0.19 0.18
0.01 0.01 0.01 0.09 0.14 0.08 0.04 0.02 0.03 0.03 0.04 0.05 0.13 0.19 0.08 0.05 0.02 0.01 0.01 0.00 0.01 0.01 0.01 0.01 0.01 0.01 0.01 0.01 0.02 0.02 0.02 0.02 0.02 0.02 0.02 0.02 0.02 0.04 0.05 0.07 0.10 0.13 0.17 0.18
0.01 0.01 0.01 0.08 0.12 0.07 0.04 0.04 0.04 0.03 0.04 0.05 0.10 0.17 0.07 0.03 0.02 0.01 0.01 0.00 0.00 0.00 0.01 0.01 0.01 0.01 0.01 0.02 0.02 0.02 0.02 0.03 0.02 0.02 0.02 0.03 0.02 0.03 0.05 0.07 0.09 0.12 0.16 0.17
0.02 0.01 0.01 0.01 0.02 0.03 0.04 0.05 0.05 0.03 0.03 0.05 0.05 0.06 0.05 0.03 0.02 0.01 0.01 0.01 0.01 0.01 0.01 0.01 0.01 0.01 0.02 0.03 0.03 0.04 0.04 0.04 0.03 0.04 0.05 0.05 0.05 0.05 0.05 0.07 0.10 0.11 0.12 0.13
0.02 0.01 0.01 0.00 0.02 0.03 0.04 0.07 0.06 0.03 0.02 0.01 0.02 0.02 0.03 0.04 0.03 0.03 0.03 0.02 0.02 0.02 0.03 0.03 0.03 0.03 0.03 0.03 0.04 0.04 0.04 0.05 0.06 0.08 0.10 0.09 0.10 0.10 0.10 0.11 0.11 0.12 0.14 0.18
0.03 0.03 0.01 0.00 0.02 0.02 0.06 0.06 0.04 0.03 0.03 0.03 0.03 0.04 0.05 0.06 0.07 0.09 0.12 0.12 0.10 0.09 0.09 0.08 0.07 0.06 0.05 0.04 0.03 0.04 0.04 0.05 0.05 0.07 0.12 0.13 0.14 0.13 0.11 0.11 0.12 0.15 0.19 0.23
0.03 0.03 0.02 0.01 0.02 0.05 0.06 0.04 0.04 0.04 0.03 0.05 0.10 0.13 0.15 0.18 0.20 0.23 0.28 0.26 0.18 0.12 0.08 0.05 0.03 0.02 0.02 0.02 0.02 0.02 0.03 0.03 0.04 0.06 0.12 0.17 0.19 0.18 0.16 0.17 0.20 0.23 0.27 0.29
0.04 0.04 0.03 0.03 0.03 0.04 0.04 0.05 0.06 0.07 0.09 0.13 0.21 0.28 0.31 0.32 0.31 0.26 0.20 0.15 0.10 0.06 0.03 0.02 0.01 0.01 0.01 0.02 0.02 0.04 0.04 0.05 0.06 0.09 0.14 0.19 0.25 0.27 0.26 0.27 0.31 0.35 0.38 0.37
0.07 0.07 0.05 0.04 0.05 0.07 0.07 0.11 0.14 0.15 0.23 0.29 0.33 0.33 0.25 0.19 0.18 0.13 0.08 0.05 0.03 0.02 0.02 0.02 0.02 0.02 0.03 0.04 0.05 0.06 0.08 0.10 0.13 0.14 0.18 0.24 0.32 0.37 0.36 0.37 0.41 0.44 0.47 0.46
0.12 0.12 0.08 0.06 0.08 0.09 0.12 0.16 0.21 0.35 0.41 0.38 0.34 0.27 0.21 0.18 0.16 0.13 0.08 0.05 0.04 0.02 0.02 0.02 0.03 0.04 0.07 0.09 0.13 0.17 0.20 0.22 0.22 0.24 0.26 0.31 0.37 0.44 0.43 0.46 0.48 0.51 0.52 0.53
0.15 0.17 0.16 0.16 0.23 0.23 0.19 0.22 0.33 0.40 0.34 0.29 0.25 0.20 0.16 0.13 0.11 0.09 0.08 0.07 0.05 0.04 0.04 0.04 0.05 0.05 0.08 0.13 0.20 0.26 0.28 0.28 0.30 0.34 0.35 0.38 0.44 0.45 0.44 0.55 0.62 0.67 0.69 0.66
0.09 0.12 0.20 0.27 0.28 0.25 0.23 0.23 0.26 0.28 0.26 0.22 0.19 0.16 0.13 0.10 0.10 0.08 0.07 0.07 0.06 0.05 0.05 0.05 0.06 0.07 0.08 0.13 0.19 0.25 0.27 0.29 0.31 0.34 0.36 0.41 0.50 0.56 0.60 0.66 0.70 0.80 0.85 0.82
0.10 0.08 0.11 0.21 0.24 0.23 0.22 0.22 0.19 0.17 0.14 0.10 0.09 0.10 0.11 0.11 0.13 0.13 0.08 0.06 0.05 0.04 0.04 0.05 0.07 0.10 0.12 0.14 0.17 0.21 0.27 0.34 0.38 0.39 0.41 0.46 0.52 0.58 0.69 0.79 0.79 0.81 0.85 0.88
0.08 0.07 0.09 0.19 0.25 0.29 0.29 0.24 0.18 0.13 0.11 0.09 0.07 0.08 0.08 0.08 0.07 0.08 0.09 0.07 0.05 0.04 0.04 0.07 0.11 0.14 0.14 0.14 0.15 0.17 0.24 0.36 0.43 0.44 0.43 0.47 0.52 0.59 0.71 0.84 0.87 0.78 0.79 0.82
0.06 0.06 0.08 0.14 0.19 0.26 0.27 0.21 0.12 0.09 0.10 0.12 0.10 0.08 0.08 0.05 0.02 0.02 0.02 0.03 0.03 0.04 0.07 0.12 0.15 0.16 0.16 0.16 0.17 0.19 0.24 0.38 0.48 0.48 0.46 0.48 0.52 0.60 0.70 0.83 0.88 0.73 0.60 0.59